This is the latest recevied weather packets stored in our database for station/object DC4XK-10. If no packets are shown the sender has not sent any weather packets the latest 10 day(s).
| Time | Temp. | Humidity | Pressure | Rain* | Wind** | Luminosity | Snow |
|---|---|---|---|---|---|---|---|
| 1777922931 | 12.78° C | 82% | 1011.2 hPa | 0 mm | 0 m/s | - | - |
| 1777922331 | 13.33° C | 81% | 1011.2 hPa | 0 mm | 0 m/s | - | - |
| 1777921733 | 13.33° C | 80% | 1011.3 hPa | 0 mm | 1.34 m/s, 314° | - | - |
| 1777919934 | 15° C | 76% | 1011 hPa | 0 mm | 1.34 m/s, 292° | - | - |
| 1777919330 | 15.56° C | 75% | 1010.7 hPa | 0 mm | 0.45 m/s, 21° | - | - |
| 1777918731 | 15.56° C | 76% | 1010.7 hPa | 0 mm | 0 m/s | - | - |
| 1777918134 | 15.56° C | 76% | 1010.8 hPa | 0 mm | 1.34 m/s, 309° | - | - |
| 1777917531 | 15.56° C | 77% | 1011 hPa | 0 mm | 0 m/s | - | - |
| 1777916331 | 15° C | 77% | 1011 hPa | 0 mm | 0.45 m/s, 304° | - | - |
| 1777915731 | 15.56° C | 76% | 1010.7 hPa | 0 mm | 1.34 m/s, 271° | - | - |
| 1777915131 | 15.56° C | 75% | 1010.9 hPa | 0 mm | 0.89 m/s, 291° | - | - |
| 1777914531 | 16.11° C | 74% | 1010.9 hPa | 0 mm | 0.45 m/s, 234° | - | - |
| 1777913931 | 16.11° C | 74% | 1011 hPa | 0 mm | 0.89 m/s, 319° | - | - |
| 1777912731 | 16.67° C | 73% | 1010.9 hPa | 0 mm | 0.45 m/s, 290° | - | - |
| 1777912130 | 16.67° C | 72% | 1010.9 hPa | 0 mm | 0.45 m/s, 340° | - | - |
| 1777911531 | 17.78° C | 69% | 1010.8 hPa | 0 mm | 1.79 m/s, 274° | - | - |
| 1777910931 | 17.78° C | 70% | 1010.9 hPa | 0 mm | 0 m/s | - | - |
| 1777909131 | 18.89° C | 68% | 1010.9 hPa | 0 mm | 1.34 m/s, 173° | - | - |
| 1777908530 | 17.78° C | 68% | 1010.9 hPa | 0 mm | 1.79 m/s, 30° | - | - |
| 1777907330 | 17.22° C | 71% | 1011.1 hPa | 0 mm | 1.34 m/s, 261° | - | - |
| 1777906730 | 17.78° C | 67% | 1011.1 hPa | 0 mm | 1.34 m/s, 186° | - | - |
| 1777906134 | 17.78° C | 68% | 1011.2 hPa | 0 mm | 0 m/s | - | - |
| 1777905531 | 17.78° C | 67% | 1011.1 hPa | 0 mm | 0.45 m/s, 136° | - | - |
| 1777904931 | 17.78° C | 66% | 1011.2 hPa | 0 mm | 0.89 m/s, 284° | - | - |
| 1777904332 | 18.33° C | 66% | 1011.2 hPa | 0 mm | 1.79 m/s, 75° | - | - |
* Rain latest hour (hover to see other rain measurements)
** Current wind speed in m/s (hover to see current wind gust speed)